Location: Roanoke
(37.2710°N, 79.9420°W)
Time: 16:37:33
(UTC-04:00)

Cosmos 1441 Rocket - Visible Passes

Search period start: 27 September 2016 00:00
Search period end: 07 October 2016 00:00
Orbit: 499 x 545 km, 81.1° (Epoch: 26 September)

Date Brightness Start Highest point End Pass type
(mag) Time Alt. Az. Time Alt. Az. Time Alt. Az.
30 Sep 7.1 20:10:20 10° WNW 20:10:55 10° W 20:11:30 10° W visible
01 Oct 6.9 06:46:54 10° ESE 06:48:58 14° E 06:51:02 10° ENE visible
01 Oct 6.9 19:56:30 10° WNW 19:57:56 12° W 19:59:21 10° WSW visible
02 Oct 7.0 06:34:22 10° ESE 06:35:59 12° E 06:37:35 10° ENE visible
02 Oct 6.8 19:43:01 10° WNW 19:44:56 14° W 19:46:50 10° WSW visible
03 Oct 7.2 06:22:04 10° ESE 06:22:59 11° E 06:23:54 10° ENE visible
03 Oct 6.7 19:29:40 10° NW 19:31:56 15° W 19:34:12 10° SW visible
